Location: Mouss�
(47.9236°N, 1.2701°W)
Time: 08:50:00
(UTC+00:00)

SPOT 3 Rocket - Pass Details

Date: 03 March 2021
Orbit: 778 x 795 km, 98.7° (Epoch: 13 April)

Event Time Altitude Azimuth Distance (km) Brightness Sun altitude
Exits shadow 20:18:41 62° 59° (ENE) 893 3.6 -24.9°
Drops below altitude 10° 20:23:40 10° 351° (N) 2,374 6.4 -25.7°
Sets 20:26:02 0° 349° (NNW) 3,309 7.2 -26.1°
